Regional Weather Roundup
Issued by NWS Columbia, SC

Home | Current Version | Previous Version | Text Only | Print | Product List | Glossary On
Versions: 1 2 3 4 5 6 7 8 9 10 11 12 13 14 15 16 17 18 19 20 21 22 23 24 25 26 27 28 29 30 31 32 33 34 35 36 37 38 39 40 41 42 43 44 45 46 47 48 49 50
000
ASUS42 KCAE 240910
RWRCAE
REGIONAL WEATHER ROUNDUP
NATIONAL WEATHER SERVICE COLUMBIA SC
500 AM EDT THU JUL 24 2014

NOTE: "FAIR" INDICATES FEW OR NO CLOUDS BELOW 12,000 FEET WITH NO
SIGNIFICANT WEATHER AND/OR OBSTRUCTIONS TO VISIBILITY.

NOT ALL STATIONS ARE QUALITY CONTROLLED BY THE NATIONAL
WEATHER SERVICE. USE DATA WITH CAUTION...ESPECIALLY
DEWPOINT OBSERVATIONS.

SCZ001>056-GAZ040-063>065-077-241000-
...UPSTATE SOUTH CAROLINA...

CITY           SKY/WX    TMP DP  RH WIND       PRES   REMARKS
ANDERSON       PTCLDY    72  71  97 CALM      29.95S
LIBERTY        CLOUDY    69  32  25 CALM      29.95S
SPARTANBURG    RAIN      73  73 100 SW5       29.93S
CLEMSON        MOCLDY    73  69  87 CALM      29.96S
GREENVILLE     MOCLDY    73  69  87 W6        29.96S
GREENWOOD      CLEAR     73  71  93 W3        29.95S
GREER          CLOUDY    73  70  90 W5        29.93F
ROCK HILL      LGT RAIN  73  71  93 SW7       29.93S
CHESTER        FAIR      75  73  94 CALM      29.93S
LAURENS        FAIR      73 N/A N/A SW6       29.94S


...CENTRAL SOUTH CAROLINA...

CITY           SKY/WX    TMP DP  RH WIND       PRES   REMARKS
COLUMBIA APT   CLEAR     79  74  84 S8        29.92F
COLUMBIA OWENS CLEAR     77  74  90 CALM      29.93F
DARLINGTON     PTCLDY    77  72  83 S7        29.93S
FLORENCE       CLEAR     76  74  93 SW3       29.93S
MCENTIRE ANGB  CLEAR     76  75  99 S5        29.93F
ORANGEBURG     CLEAR     76  73  91 SW7       29.94F
SUMTER SHAW    CLEAR     76  76  98 S7        29.91F
NEWBERRY       FAIR      73  73 100 SW5       29.96S
AIKEN          FAIR      73  73 100 S5        29.98S
BARNWELL       FAIR      75  75 100 SW5       29.95F
MANNING        FAIR      79 N/A N/A SW5       29.94R
CAMDEN         FAIR      75  75 100 S3        29.93S
LANCASTER      PTSUNNY   73  73 100 CALM      29.92F
WINNSBORO      FAIR      73  72  94 S5        29.93S


...EASTERN AND COASTAL SOUTH CAROLINA...

CITY           SKY/WX    TMP DP  RH WIND       PRES   REMARKS
MYRTLE BEACH   PTCLDY    79  75  89 SW7       29.94F
N MYRTLE BCH   CLEAR     79  76  90 W6        29.93F
CONWAY         FAIR      75  75 100 SW5       29.93F
MARION         PTSUNNY   75  75 100 S5        29.93S
HARTSVILLE     FAIR      77 N/A N/A SW3       29.93S
FLORENCE       CLEAR     76  74  93 SW3       29.93S
DARLINGTON     PTCLDY    77  72  83 S7        29.93S
CHARLESTON APT CLEAR     80  77  90 SW6       29.94F
MOUNT PLEASANT FAIR      81  79  94 CALM      29.94F
WALTERBORO     SUNNY     77 N/A N/A W3        29.96S
BEAUFORT       CLEAR     79  76  90 W9        29.95S


...EASTERN GEORGIA...

CITY           SKY/WX    TMP DP  RH WIND       PRES   REMARKS
AUGUSTA BUSH F CLEAR     75  71  87 SW7       29.93S
AUGUSTA DANIEL CLEAR     77  72  84 SW3       29.95S
THOMSON        CLEAR     77  76  98 CALM      29.99R
WASHINGTON     FAIR      77 N/A N/A CALM      29.95S
CLAXTON        FAIR     N/A N/A N/A CALM      29.97S HAZE
SYLVANIA       SUNNY     76  76 100 CALM      29.97S FOG
STATESBORO     CLEAR     76  76 100 CALM      29.96S
SAVANNAH       CLEAR     78  74  87 SW5       29.97S


...SOUTHERN NORTH CAROLINA...

CITY           SKY/WX    TMP DP  RH WIND       PRES   REMARKS
CHARLOTTE      MOCLDY    72  69  90 S3        29.92F
MONROE         LGT RAIN  74  71  91 SW12      29.92S
WADESBORO      PTSUNNY   76  72  88 CALM      29.90F
ROCKINGHAM       N/A     73  73 100 CALM      29.92S FOG
RUTHERFORDTON  CLOUDY    69  69  98 W9        29.95S
ASHEVILLE      MOCLDY    68  66  93 NW5       30.02R

$$


USA.gov is the U.S. government's official web portal to all federal, state and local government web resources and services.